Regional Weather Roundup
Issued by NWS

Home | Current Version | Previous Version | Text Only | Print | Product List | Glossary Off
Versions: 1 2 3 4 5 6 7 8 9 10 11 12 13 14 15 16 17 18 19 20 21 22 23 24 25 26 27 28 29 30 31 32 33 34 35 36 37 38 39 40 41 42 43 44 45 46 47 48 49 50

000
ASUS43 KLOT 231759
RWRIL

ILLINOIS REGIONAL WEATHER ROUNDUP
NATIONAL WEATHER SERVICE CHICAGO/ROMEOVILLE IL
100 PM CDT SUN JUL 23 2017

NOTE: "FAIR" INDICATES FEW OR NO CLOUDS BELOW 12,000 FEET WITH NO
SIGNIFICANT WEATHER AND/OR OBSTRUCTIONS TO VISIBILITY.

* THESE STATIONS ARE NOT UNDER NWS QUALITY CONTROL. THEY ALSO MAY NOT
  REPORT WEATHER SUCH AS PRECIPITATION OR FOG.

ILZ001-002-007-009-015-016-024-231900-
NORTHWEST ILLINOIS

CITY           SKY/WX    TMP DP  RH WIND       PRES   REMARKS
MOLINE         MOSUNNY   88  73  61 W10       29.84S HX  95
6HR MIN TEMP:  74; 6HR MAX TEMP:  89;

$$

ILZ003-004-008-010-011-017-018-231900-
NORTH CENTRAL ILLINOIS

CITY           SKY/WX    TMP DP  RH WIND       PRES   REMARKS
ROCKFORD       NOT AVBL
$$

ILZ005-006-012>014-019>023-231900-
NORTHEAST ILLINOIS

CITY           SKY/WX    TMP DP  RH WIND       PRES   REMARKS
CHICAGO-OHARE  MOSUNNY   89  61  38 NW8       29.79F HX  89
6HR MIN TEMP:  74; 6HR MAX TEMP:  89;

CHICAGO-MIDWAY NOT AVBL
AURORA         SUNNY     86  73  65 W9        29.83S HX  93
6HR MIN TEMP:  74; 6HR MAX TEMP:  86;

WAUKEGAN       NOT AVBL
DUPAGE AIRPORT SUNNY     87  67  51 W10       29.81S HX  90
6HR MIN TEMP:  73; 6HR MAX TEMP:  87;

WHEELING       SUNNY     86  63  45 NW6       29.81S HX  87
6HR MIN TEMP:  74; 6HR MAX TEMP:  86;

NORTHERLY ISL    N/A     82  72  71 CALM        N/A  HX  87
$$

LMZ740>746-231900-
SOUTHERN LAKE MICHIGAN

STATION/POSITION SKY/WX   TEMP    WIND        PRES    VSBY  WAVE
                          AIR SEA DIR/SP/G                  HT/PER
                          (F)     (DEG/KT/KT) (MB)    (MI)  (FT/S)
SOUTHERN BUOY              72 71  270/  8/ 10 1008.7F         0
WILMETTE HARBOR            78 77  130/  4/  4   N/A           0
HARRISON CRIB              81     110/  3/  3   N/A
BURNHAM HARBOR             82                   N/A
CALUMET HARBOR             79      50/  8/  8 1008.8R
BURNS HARBOR               79     350/  3/  4 1009.8S
MICHIGAN CITY              80     270/  5/  6   N/A
MICHIGAN CITY 6N           78 77  290/  6/  6   N/A           0
ST. JOSEPH                 75 76  280/  6/  8 1008.8S         1
$$

ILZ025>027-034>036-040-047-049-050-058-095>099-231900-
WEST-CENTRAL ILLINOIS

CITY           SKY/WX    TMP DP  RH WIND       PRES   REMARKS
$$

ILZ028>032-037-038-041>044-048-051>054-059>061-231900-
CENTRAL ILLINOIS

CITY           SKY/WX    TMP DP  RH WIND       PRES   REMARKS
PEORIA         NOT AVBL
SPRINGFIELD    MOSUNNY   89  76  65 NW6       29.87F HX 100
6HR MIN TEMP:  74; 6HR MAX TEMP:  89;

TAYLORVILLE    NOT AVBL
$$

ILZ033-039-045-046-055>057-062-063-231900-
EAST-CENTRAL ILLINOIS

CITY           SKY/WX    TMP DP  RH WIND       PRES   REMARKS
$$

ILZ079-100>102-231900-
SOUTHWEST ILLINOIS

CITY           SKY/WX    TMP DP  RH WIND       PRES   REMARKS
$$

ILZ064>066-069>071-074>076-080>082-084>086-088>090-092>094-231900-
SOUTH-CENTRAL ILLINOIS

CITY           SKY/WX    TMP DP  RH WIND       PRES   REMARKS
CARBONDALE     SUNNY     85  71  63 CALM      29.90F HX  90
6HR MIN TEMP:  71; 6HR MAX TEMP:  86; 6HR PCP: TRACE;

MARION         PTSUNNY   88  70  55 NW5       29.91F HX  92
$$

ILZ067-068-072-073-078-083-087-091-231900-
SOUTHEAST ILLINOIS

CITY           SKY/WX    TMP DP  RH WIND       PRES   REMARKS
$$

ABBREVIATIONS USED IN REMARKS
   TC - TEMPERATURE IN CELSIUS
  WCI - WIND CHILL INDEX
   HX - HEAT INDEX
  VSB - VISIBILITY
$$





USA.gov is the U.S. government's official web portal to all federal, state and local government web resources and services.